[[{"header":{"parameterUnit":"m.s-1","parameterCategory":1,"la1":30.2991,"la2":30.254,"lo1":-89.0895,"lo2":-89.0444,"dy":0.0017,"dx":0.0017,"nx":28,"ny":28,"refTime":"2025-03-12T09:00:00:Z","depth":0,"parameterNumber":2,"parameterNumberName":"U-component_of_WINDS"},"data":[0,0,0,0,0,0,0,0,0,0,0,0,0,0,0,0,0,0,0,0,0,0,0,0,0,0,0,0,0,0,0,0,0,0,0,0,0,0,0,0,0,0,0,0,0,0,0,0,0,0,0,0,0,0,0,0,0,0,0.158,0.1581,0,0.1649,0.165,0.1651,0.1707,0.1708,0.1708,0.1709,0.1783,0.1785,0.1786,0,0,0,0,0,0,0,0,0,0,0,0,0,0.1501,0.1502,0.158,0.1581,0.1582,0.1649,0.165,0.1651,0.1707,0.1708,0.1708,0.1709,0.1783,0.1784,0.1786,0,0,0,0,0,0,0,0,0,0,0,0,0,0.1549,0.1503,0.158,0.1618,0.1622,0.1649,0.165,0.1651,0.1707,0.1708,0.1708,0.1709,0.1782,0.1784,0.1786,0.1783,0,0,0.1793,0.1794,0,0,0,0,0,0,0,0,0.1547,0.1552,0.1611,0.1615,0.162,0.167,0.165,0.1695,0.1707,0.1675,0.1709,0.171,0.1745,0.175,0.1762,0.1786,0.1789,0.1793,0.1794,0.1795,0.1796,0,0,0,0,0,0,0,0.1543,0.155,0.1608,0.1612,0.1617,0.1633,0.1641,0.1658,0.1704,0.1677,0.1682,0.1689,0.1748,0.1759,0.1764,0.179,0.1793,0.1795,0.1796,0.1797,0.1818,0.1817,0,0,0,0,0,0,0.1533,0.1546,0.1605,0.161,0.1584,0.1633,0.1642,0.1653,0.1704,0.1713,0.1688,0.1691,0.1755,0.1761,0.1767,0.1767,0.1795,0.1797,0.1799,0.1819,0.1818,0.1817,0,0,0,0,0,0,0.1531,0.1538,0.1603,0.1579,0.1589,0.1634,0.1646,0.1654,0.1666,0.1712,0.1721,0.1691,0.1756,0.1764,0.1778,0.1771,0.1798,0.18,0.1819,0.1818,0.1817,0.1767,0,0,0,0,0,0,0.1529,0.1537,0.1535,0.1579,0.159,0.1612,0.1645,0.1655,0.1669,0.1674,0.1718,0.1726,0.1757,0.1775,0.1781,0.1774,0.1802,0.182,0.1819,0.1818,0.177,0.1764,0.176,0,0,0,0,0,0.1526,0.1518,0.1534,0.1541,0.1588,0.1611,0.1618,0.1653,0.1668,0.1667,0.1697,0.1724,0.177,0.1776,0.1783,0.1777,0.1821,0.1819,0.1818,0.1772,0.1765,0.176,0,0,0,0,0,0,0.1473,0.1525,0.1543,0.1549,0.1575,0.162,0.162,0.1645,0.1668,0.1671,0.1716,0.1725,0.1736,0.1758,0.1763,0.1777,0.1799,0.1799,0.1762,0.1756,0.1752,0.1747,0.1804,0,0,0,0,0,0.1462,0.1476,0.152,0.1522,0.1534,0.1575,0.1586,0.1611,0.164,0.1652,0.1683,0.1712,0.1733,0.1746,0.1767,0.1773,0.1785,0.1772,0.1767,0.1763,0.1763,0.1769,0.1765,0.1811,0.1811,0.1811,0,0,0.144,0.147,0.1476,0.1512,0.1535,0.155,0.1584,0.1597,0.1609,0.1655,0.1671,0.1694,0.1729,0.174,0.1746,0.1759,0.1753,0.1761,0.1757,0.1759,0.1767,0.1763,0.1759,0.181,0.181,0.181,0,0,0.1407,0.143,0.1435,0.1457,0.1491,0.1519,0.152,0.1561,0.1579,0.1595,0.163,0.1646,0.168,0.1704,0.1721,0.1698,0.1725,0.1704,0.1679,0.1685,0.1681,0.1679,0.1672,0.1669,0.1703,0.1703,0.1703,0,0.1376,0.1398,0.1434,0.1446,0.1462,0.1502,0.1508,0.1529,0.1569,0.1579,0.1592,0.1638,0.1664,0.1682,0.1676,0.1688,0.1692,0.17,0.1679,0.1676,0.1674,0.1669,0.1666,0.1701,0.1701,0.1701,0.1701,0,0.1358,0.1373,0.1372,0.1409,0.1425,0.1433,0.1473,0.1485,0.1509,0.1535,0.1553,0.1586,0.1616,0.1621,0.1645,0.1643,0.165,0.167,0.1694,0.1666,0.1662,0.166,0.1697,0.1698,0.1699,0.1699,0,0,0.1294,0.1351,0.1351,0.1369,0.141,0.1423,0.1434,0.1463,0.1473,0.1499,0.1511,0.154,0.1559,0.1578,0.1605,0.161,0.1592,0.163,0.1632,0.1623,0.1595,0.158,0.1577,0.161,0.1609,0.1609,0.1592,0,0.1269,0.129,0.1324,0.1335,0.1351,0.139,0.1401,0.1428,0.1453,0.1471,0.15,0.152,0.1543,0.1555,0.1562,0.1593,0.1588,0.1595,0.1624,0.1624,0.1615,0.1575,0.1559,0.1542,0.1591,0.1591,0.159,0,0.1243,0.1266,0.1278,0.132,0.1328,0.1336,0.1366,0.1381,0.1414,0.1433,0.1454,0.1483,0.1499,0.152,0.1544,0.1548,0.1562,0.1579,0.1579,0.1585,0.1606,0.158,0.1537,0.1534,0.1588,0.1588,0.1588,0,0.1197,0.1232,0.1244,0.1258,0.1306,0.1311,0.1332,0.1365,0.1381,0.1407,0.1418,0.1446,0.1462,0.1484,0.152,0.1531,0.1541,0.1564,0.1559,0.1558,0.156,0.156,0.1519,0.1566,0.1566,0.1566,0.1566,0,0.1166,0.1173,0.1224,0.1232,0.1241,0.128,0.1289,0.1313,0.1343,0.1357,0.1393,0.1407,0.1454,0.1473,0.1502,0.1519,0.1526,0.1542,0.155,0.154,0.1538,0.1551,0.1553,0.1566,0.1566,0.1566,0.1566,0,0.1117,0.1152,0.1168,0.1212,0.1223,0.1228,0.1267,0.1277,0.1305,0.1323,0.1329,0.1373,0.1398,0.1437,0.1473,0.1493,0.1505,0.1517,0.1494,0.1499,0.1492,0.1493,0.146,0.1458,0.1504,0.1503,0.1503,0,0.1096,0.1102,0.1146,0.1158,0.1177,0.1195,0.1211,0.1251,0.1266,0.1304,0.131,0.1338,0.1362,0.14,0.1436,0.1465,0.1479,0.1465,0.1484,0.1474,0.1481,0.1481,0.1482,0.1462,0.1461,0.146,0.146,0,0.1055,0.1072,0.1093,0.112,0.1137,0.1161,0.1186,0.1194,0.124,0.1255,0.128,0.1299,0.1336,0.1364,0.1398,0.1421,0.1449,0.1454,0.1454,0.1444,0.1431,0.144,0.1484,0.1454,0.1455,0.1455,0.1456,0.1456,0.102,0.1028,0.1061,0.1083,0.1106,0.1129,0.1141,0.117,0.1191,0.1224,0.1246,0.1271,0.1305,0.1353,0.1375,0.1397,0.1408,0.1409,0.1409,0.1409,0.1406,0.1426,0.1403,0.1403,0.1403,0.1403,0.1403,0,0.0983,0.1006,0.1026,0.106,0.1078,0.1101,0.1131,0.1145,0.1165,0.1194,0.1217,0.1247,0.1275,0.1313,0.1344,0.1353,0.1367,0.136,0.1361,0.1366,0.1393,0.139,0.1349,0.1349,0.1349,0.1349,0.1349,0.1349,0.0965,0.098,0.1001,0.1028,0.1052,0.1075,0.1091,0.1113,0.1137,0.1168,0.119,0.1215,0.1248,0.1282,0.1309,0.132,0.133,0.132,0.1334,0.1359,0.1364,0.1369,0.1366,0.1321,0.1321,0.1306,0.1306,0.1306]},{"header":{"parameterUnit":"m.s-1","parameterCategory":1,"la1":30.2991,"la2":30.254,"lo1":-89.0895,"lo2":-89.0444,"dy":0.0017,"dx":0.0017,"nx":28,"ny":28,"refTime":"2025-03-12T09:00:00:Z","depth":0,"parameterNumber":3,"parameterNumberName":"V-component_of_WINDS"},"data":[0,0,0,0,0,0,0,0,0,0,0,0,0,0,0,0,0,0,0,0,0,0,0,0,0,0,0,0,0,0,0,0,0,0,0,0,0,0,0,0,0,0,0,0,0,0,0,0,0,0,0,0,0,0,0,0,0,0,3.5268,3.5268,0,3.5303,3.5303,3.5303,3.5299,3.5298,3.5298,3.5297,3.5332,3.5334,3.5335,0,0,0,0,0,0,0,0,0,0,0,0,0,3.5199,3.52,3.5268,3.5268,3.5269,3.5303,3.5303,3.5303,3.5299,3.5298,3.5298,3.5297,3.5332,3.5334,3.5335,0,0,0,0,0,0,0,0,0,0,0,0,0,3.5231,3.5201,3.5268,3.5271,3.5271,3.5302,3.5303,3.5304,3.5299,3.5298,3.5298,3.5297,3.5331,3.5333,3.5336,3.5366,0,0,3.5342,3.5343,0,0,0,0,0,0,0,0,3.5229,3.5233,3.527,3.527,3.5271,3.5296,3.5292,3.5325,3.5299,3.5289,3.5297,3.5296,3.5321,3.5324,3.5332,3.5368,3.5369,3.5343,3.5344,3.5345,3.5345,0,0,0,0,0,0,0,3.5227,3.5232,3.5282,3.527,3.5271,3.5271,3.5274,3.5298,3.5309,3.5289,3.5289,3.5293,3.5321,3.533,3.5333,3.537,3.5342,3.5344,3.5346,3.5347,3.5435,3.5436,0,0,0,0,0,0,3.5224,3.523,3.528,3.5283,3.5248,3.5272,3.5276,3.5289,3.5309,3.5311,3.5294,3.5293,3.5327,3.533,3.5334,3.5373,3.5345,3.5347,3.5348,3.5434,3.5435,3.5436,0,0,0,0,0,0,3.5222,3.5228,3.5279,3.5256,3.5263,3.5275,3.5288,3.529,3.5299,3.5312,3.5314,3.5301,3.5326,3.5331,3.5359,3.5374,3.5348,3.535,3.5433,3.5434,3.5436,3.545,0,0,0,0,0,0,3.522,3.5228,3.5239,3.5257,3.5264,3.5303,3.5289,3.5291,3.5303,3.5302,3.5319,3.5322,3.5326,3.5356,3.5361,3.5377,3.5352,3.5431,3.5433,3.5435,3.5448,3.5452,3.5455,0,0,0,0,0,3.5218,3.5241,3.524,3.5246,3.5278,3.5304,3.5308,3.5313,3.5304,3.5316,3.5325,3.5321,3.5372,3.5359,3.5365,3.5381,3.543,3.5433,3.5435,3.5447,3.5451,3.5455,0,0,0,0,0,0,3.5224,3.5243,3.5242,3.5271,3.5286,3.5303,3.5318,3.5317,3.5334,3.5332,3.5337,3.5341,3.537,3.5378,3.5363,3.5413,3.54,3.5404,3.5407,3.5411,3.5414,3.5412,3.5353,0,0,0,0,0,3.5229,3.5248,3.5264,3.5288,3.5296,3.5306,3.5317,3.5319,3.5335,3.5341,3.5352,3.5367,3.5386,3.5399,3.5417,3.5449,3.5454,3.5464,3.5467,3.547,3.5473,3.5493,3.5498,3.5444,3.5444,3.5444,0,0,3.5239,3.5252,3.5263,3.529,3.5301,3.5322,3.5311,3.5332,3.5347,3.5344,3.5371,3.538,3.5397,3.5428,3.5442,3.5436,3.5489,3.5473,3.5475,3.5477,3.5496,3.5501,3.5506,3.5445,3.5445,3.5445,0,0,3.5268,3.5279,3.5302,3.5314,3.5333,3.534,3.5345,3.5363,3.5369,3.5396,3.5395,3.5413,3.5446,3.5459,3.547,3.5507,3.5505,3.5513,3.5531,3.555,3.5554,3.5558,3.5573,3.5578,3.5516,3.5516,3.5516,0,3.5279,3.5309,3.5314,3.5336,3.5349,3.5347,3.5371,3.5383,3.5406,3.5415,3.5408,3.5451,3.5462,3.5497,3.5506,3.5514,3.5522,3.5511,3.5553,3.5557,3.5561,3.5575,3.5581,3.5517,3.5517,3.5517,3.5517,0,3.5322,3.5343,3.5359,3.5383,3.5397,3.542,3.5429,3.5443,3.5445,3.5453,3.5482,3.5496,3.5518,3.5527,3.5528,3.5562,3.5558,3.5552,3.5539,3.5567,3.5581,3.5586,3.5518,3.5518,3.5518,3.5518,0,0,3.5355,3.5383,3.5389,3.5401,3.5422,3.5438,3.5462,3.5484,3.5497,3.5514,3.5534,3.5563,3.5559,3.5571,3.5574,3.5591,3.5622,3.5583,3.5583,3.5591,3.5663,3.5669,3.5675,3.562,3.5621,3.5622,3.5662,0,3.5388,3.543,3.5436,3.5473,3.5494,3.5494,3.5515,3.553,3.5539,3.5558,3.5567,3.5589,3.5579,3.5587,3.5604,3.5614,3.5636,3.5611,3.5641,3.5642,3.5638,3.5681,3.5687,3.5724,3.5667,3.5668,3.5669,0,3.5431,3.545,3.549,3.5511,3.5519,3.5538,3.5561,3.5578,3.5597,3.5602,3.5617,3.5619,3.5644,3.563,3.5666,3.5649,3.5661,3.5669,3.567,3.5674,3.5658,3.5688,3.5736,3.5742,3.5677,3.5676,3.5676,0,3.5454,3.5489,3.5519,3.5528,3.5552,3.5566,3.5576,3.5594,3.5608,3.5627,3.5637,3.5659,3.5671,3.5689,3.5696,3.5685,3.5733,3.5719,3.5739,3.5739,3.575,3.5749,3.5802,3.5755,3.5755,3.5755,3.5755,0,3.5491,3.5515,3.5529,3.5547,3.5576,3.5583,3.5611,3.5621,3.5637,3.5658,3.5658,3.5678,3.5686,3.5707,3.5714,3.5744,3.5749,3.5755,3.5756,3.5755,3.5755,3.5764,3.5763,3.5757,3.5756,3.5756,3.5756,0,3.5521,3.5531,3.5563,3.5584,3.559,3.561,3.5628,3.5646,3.5655,3.5681,3.5688,3.5702,3.5727,3.5736,3.5766,3.577,3.5806,3.5805,3.58,3.5801,3.5821,3.582,3.5883,3.5892,3.5838,3.5839,3.5839,0,3.5544,3.5564,3.5587,3.5601,3.5613,3.5635,3.565,3.5658,3.5674,3.5697,3.5713,3.5738,3.5759,3.5799,3.5812,3.5835,3.5836,3.5856,3.5839,3.5838,3.5838,3.5837,3.584,3.5859,3.586,3.586,3.5861,0,3.5585,3.559,3.5611,3.5635,3.5653,3.5672,3.569,3.5702,3.5713,3.5731,3.5757,3.5773,3.5805,3.583,3.5855,3.5866,3.5866,3.5866,3.5872,3.5872,3.587,3.5873,3.581,3.5865,3.5864,3.5864,3.5864,3.5864,3.5614,3.5632,3.5652,3.5677,3.5692,3.571,3.5728,3.574,3.5762,3.5789,3.5792,3.5821,3.5841,3.5874,3.5887,3.5909,3.5904,3.5912,3.5915,3.5917,3.592,3.5865,3.5914,3.5913,3.5913,3.5913,3.5913,0,3.5657,3.567,3.5693,3.5719,3.5739,3.5737,3.5758,3.5775,3.58,3.5818,3.5839,3.587,3.5896,3.5911,3.5937,3.5952,3.5953,3.5959,3.5958,3.5962,3.5922,3.5915,3.5958,3.5958,3.5958,3.5958,3.5958,3.5958,3.5682,3.5713,3.572,3.576,3.5773,3.5801,3.5814,3.5831,3.5846,3.5881,3.5902,3.5912,3.593,3.5957,3.5981,3.5985,3.5995,3.6001,3.6005,3.5968,3.5964,3.596,3.5953,3.6003,3.6003,3.6043,3.6043,3.6044]}]]